Flag for Portugal Weather past 2 weeks in Faro, Portugal

Now
77 °F

Sunny.


Feels Like: 79 °F
Forecast: 65 / 82 °F
Wind: 16 mph from West

Location: Faro / Aeroporto

Current Time: Jul 24, 2014 at 12:44:59 PM

Latest Report: Jul 24, 2014 at 12:00 PM


Visibility: 10 mi

Pressure: 29.89 "Hg

Humidity: 57%

Dew point: 61 °F

Location of FaroLocation

Historic Weather in Faro — Graph

°F

Faro temperature yesterday

Maximum temperature yesterday: 88 °F (at 7:30 PM)
Minimum temperature yesterday: 64 °F (at 6:00 AM)
Average temperature yesterday: 77 °F

Past Weeks' High & Low Weather Summary

 TemperatureHumidityPressure
High88 °F (Jul 23, 7:30 PM)100% (Jul 19, 6:30 AM)30.12 "Hg (Jul 19, 6:30 AM)
Low63 °F (Jul 20, 5:00 AM)24% (Jul 23, 12:00 AM)29.86 "Hg (Jul 23, 5:00 AM)
Average75 °F65%29.98 "Hg
* Reported Jul 9 11:00 AM — Jul 24 11:30 AM, Faro, Weather by CustomWeather, © 2014

Note: Actual official high and low records may vary slightly from our data, if they occured in-between our weather recording intervals... More about our weather records

Advertising

Faro weather history for previous 24 hours

 ConditionsComfort  
Time TempWeatherWind HumidityBarometerVisibility
11:30 AM
Jul 24
77 °FPassing clouds.9 mph57%29.92 "HgN/A
11:00 AM77 °FPassing clouds.8 mph54%29.89 "HgN/A
10:30 AM77 °FPassing clouds.7 mph54%29.92 "HgN/A
10:00 AM73 °FPassing clouds.8 mph61%29.92 "HgN/A
9:30 AM72 °FPassing clouds.7 mph65%29.92 "HgN/A
9:00 AM72 °FPassing clouds.8 mph65%29.92 "HgN/A
8:30 AM70 °FSunny.9 mph69%29.92 "Hg10 mi
8:00 AM68 °FSunny.9 mph73%29.92 "Hg10 mi
7:30 AM66 °FSunny.8 mph78%29.92 "Hg10 mi
7:00 AM66 °FClear.7 mph78%29.89 "Hg10 mi
6:30 AM66 °FClear.8 mph73%29.89 "Hg10 mi
6:00 AM66 °FClear.8 mph68%29.89 "Hg10 mi
5:30 AM68 °FClear.2 mph64%29.89 "Hg10 mi
5:00 AM68 °FClear.No wind64%29.89 "Hg10 mi
4:30 AM68 °FClear.3 mph64%29.86 "Hg10 mi
4:00 AM68 °FClear.2 mph64%29.86 "Hg10 mi
3:30 AM68 °FPassing clouds.3 mph64%29.86 "HgN/A
3:00 AM70 °FPassing clouds.5 mph60%29.86 "HgN/A
2:30 AM68 °FClear.6 mph69%29.86 "Hg10 mi
2:00 AM70 °FClear.6 mph64%29.86 "Hg10 mi
1:30 AM72 °FClear.7 mph61%29.86 "Hg10 mi
1:00 AM72 °FClear.8 mph61%29.89 "Hg10 mi
12:30 AM73 °FClear.7 mph57%29.89 "Hg10 mi
12:00 AM75 °FClear.9 mph54%29.89 "Hg10 mi
11:30 PM
Jul 23
75 °FClear.9 mph57%29.89 "Hg10 mi
11:00 PM75 °FPassing clouds.8 mph57%29.89 "HgN/A
10:30 PM77 °FClear.8 mph54%29.89 "Hg10 mi
10:00 PM79 °FClear.9 mph48%29.89 "Hg10 mi
9:30 PM81 °FSunny.9 mph45%29.86 "Hg10 mi
9:00 PM82 °FSunny.12 mph40%29.86 "Hg10 mi
8:30 PM84 °FSunny.13 mph31%29.86 "Hg10 mi
8:00 PM88 °FSunny.13 mph29%29.86 "Hg10 mi
7:30 PM88 °FSunny.15 mph31%29.86 "Hg10 mi
7:00 PM82 °FSunny.10 mph51%29.86 "Hg10 mi
6:55 PM82 °FSunny.10 mph51%29.86 "Hg10 mi
6:00 PM79 °FSunny.15 mph58%29.86 "Hg10 mi
5:30 PM81 °FSunny.16 mph51%29.86 "Hg10 mi
5:00 PM81 °FSunny.15 mph54%29.86 "Hg10 mi
4:30 PM79 °FSunny.15 mph58%29.86 "Hg10 mi
4:00 PM79 °FSunny.13 mph61%29.86 "Hg10 mi
3:30 PM81 °FSunny.13 mph58%29.89 "Hg10 mi
2:30 PM79 °FSunny.12 mph58%29.89 "Hg10 mi
2:02 PM81 °FSunny.8 mph37%29.89 "Hg10 mi
2:00 PM77 °FSunny.8 mph57%29.89 "Hg10 mi
1:00 PM79 °FPassing clouds.7 mph48%29.92 "HgN/A
12:30 PM81 °FSunny.7 mph51%29.92 "Hg10 mi
12:00 PM79 °FSunny.9 mph58%29.92 "Hg10 mi
Weather by CustomWeather, © 2014

See weather overviewHow to use our weather pages